Jaffrey, NH

4:14 AM EDT on April 23, 2017 (GMT -0400)
Jaffrey Airport-Silver Ranch

Weather History for KAFN - June, 2013

Change the Weather History Date:

Sunday, June 30, 2013

  Actual Average Record
Temperature  
Mean Temperature 76 °F -  
Max Temperature 82 °F 77 °F 87 °F (2001)
Min Temperature 69 °F 56 °F 48 °F (2010)
Cooling Degree Days 10    
Growing Degree Days 26 (Base 50)    
Moisture  
Dew Point 66 °F    
Average Humidity 80    
Maximum Humidity 90    
Minimum Humidity 53    
Precipitation  
Precipitation 0.00 in - - ()
Sea Level Pressure  
Sea Level Pressure 29.87 in    
Wind  
Wind Speed 6 mph (SSW)    
Max Wind Speed 15 mph    
Max Gust Speed 23 mph    
Visibility 9 miles    
Events Rain , Thunderstorm    
Averages and records for this station are not official NWS values.
T = Trace of Precipitation, MM = Missing Value Source: NWS Daily Summary

Daily Weather History Graph

Daily Weather History Graph

Search for Another Location

Airport or City:

Trip Planner

Search our weather history database for the weather conditions in past years. The results will help you decide how hot, cold, wet, or windy it might be!

Date:

Astronomy

Jun. 30, 2013 Rise Set
Actual Time 5:12 AM EDT 8:30 PM EDT
Civil Twilight 4:37 AM EDT 9:05 PM EDT
Nautical Twilight 3:52 AM EDT 9:50 PM EDT
Astronomical Twilight 2:56 AM EDT 10:46 PM EDT
Moon 12:17 AM EDT (6/30) 1:35 PM EDT (6/30)
Length of Visible Light 16h 27m
Length of Day
15h 17m
Last Quarter, 45% of the Moon is Illuminated
Jun 30
Last Quarter
Jul 8
New
Jul 15
First Quarter
Jul 22
Full
Jul 29
Last Quarter

Hourly Weather History & Observations

Time (EDT) Temp. Heat Index Dew Point Humidity Pressure Visibility Wind Dir Wind Speed Gust Speed Precip Events Conditions
12:10 AM 69.8 °F - 66.2 °F 88% 29.75 in 10.0 mi South 6.9 mph - N/A   Mostly Cloudy
12:52 AM 69.1 °F - 66.0 °F 90% 29.75 in 10.0 mi SSW 6.9 mph - N/A   Overcast
1:52 AM 69.1 °F - 66.0 °F 90% 29.76 in 10.0 mi SSW 6.9 mph - N/A   Overcast
2:15 AM 69.8 °F - 66.2 °F 88% 29.75 in 10.0 mi South 6.9 mph - N/A   Overcast
2:45 AM 69.8 °F - 66.2 °F 88% 29.76 in 9.0 mi SSW 8.1 mph - N/A   Mostly Cloudy
2:52 AM 69.1 °F - 66.0 °F 90% 29.76 in 9.0 mi SW 4.6 mph - N/A   Overcast
3:52 AM 69.1 °F - 66.0 °F 90% 29.77 in 9.0 mi SSW 5.8 mph - N/A   Overcast
4:52 AM 69.1 °F - 66.0 °F 90% 29.78 in 8.0 mi SW 3.5 mph - N/A   Overcast
5:52 AM 69.1 °F - 66.0 °F 90% 29.81 in 6.0 mi Variable 5.8 mph - N/A   Overcast
6:52 AM 69.1 °F - 64.9 °F 87% 29.83 in 6.0 mi SW 4.6 mph - N/A   Overcast
7:52 AM 70.0 °F - 64.9 °F 84% 29.85 in 8.0 mi SSW 4.6 mph - N/A   Mostly Cloudy
8:23 AM 71.6 °F - 64.4 °F 78% 29.86 in 9.0 mi South 8.1 mph - N/A   Mostly Cloudy
8:39 AM 71.6 °F - 64.4 °F 78% 29.86 in 10.0 mi SSW 6.9 mph - N/A   Scattered Clouds
8:52 AM 72.0 °F - 64.9 °F 78% 29.87 in 10.0 mi SSW 5.8 mph - N/A   Scattered Clouds
9:52 AM 73.0 °F - 64.9 °F 76% 29.87 in 10.0 mi West 4.6 mph - N/A   Clear
10:52 AM 73.9 °F - 66.0 °F 76% 29.88 in 10.0 mi SSW 5.8 mph - N/A   Clear
11:52 AM 78.1 °F - 66.0 °F 66% 29.88 in 10.0 mi SSW 5.8 mph - N/A   Clear
12:52 PM 81.0 °F 82.5 °F 64.0 °F 56% 29.87 in 10.0 mi South 10.4 mph 17.3 mph N/A   Scattered Clouds
1:52 PM 82.9 °F 84.4 °F 64.0 °F 53% 29.86 in 10.0 mi South 12.7 mph 18.4 mph N/A   Partly Cloudy
2:52 PM 81.0 °F 82.5 °F 64.0 °F 56% 29.87 in 10.0 mi SW 6.9 mph - N/A   Partly Cloudy
3:52 PM 82.0 °F 83.8 °F 64.9 °F 56% 29.86 in 10.0 mi SSW 6.9 mph - N/A   Clear
4:52 PM 79.0 °F - 66.0 °F 64% 29.88 in 10.0 mi SSW 8.1 mph - N/A   Partly Cloudy
5:27 PM 77.0 °F - 68.0 °F 74% 29.89 in 10.0 mi SSE 8.1 mph - 0.00 in Thunderstorm Scattered Clouds
5:42 PM 75.2 °F - 66.2 °F 73% 29.91 in 10.0 mi South 15.0 mph 23.0 mph 0.00 in Thunderstorm Thunderstorm
5:52 PM 72.0 °F - 66.0 °F 81% 29.91 in 4.0 mi SE 9.2 mph 21.9 mph 0.00 in Rain , Thunderstorm Light Thunderstorms and Rain
6:01 PM 73.4 °F - 68.0 °F 83% 29.91 in 10.0 mi South 3.5 mph - 0.00 in Rain Light Rain
6:20 PM 75.2 °F - 69.8 °F 83% 29.92 in 10.0 mi SSW 5.8 mph - 0.00 in Thunderstorm Scattered Clouds
6:36 PM 75.2 °F - 68.0 °F 78% 29.93 in 10.0 mi SSW 9.2 mph - 0.00 in   Partly Cloudy
6:52 PM 75.0 °F - 68.0 °F 79% 29.93 in 10.0 mi SSW 6.9 mph - 0.00 in   Scattered Clouds
7:52 PM 73.0 °F - 69.1 °F 87% 29.93 in 10.0 mi South 5.8 mph - N/A   Clear
8:52 PM 72.0 °F - 68.0 °F 87% 29.93 in 10.0 mi Calm Calm - N/A   Clear
9:52 PM 72.0 °F - 68.0 °F 87% 29.95 in 10.0 mi Calm Calm - N/A   Clear
10:47 PM 71.6 °F - 68.0 °F 88% 29.96 in 10.0 mi South 3.5 mph - N/A   Mostly Cloudy
10:52 PM 71.1 °F - 68.0 °F 90% 29.96 in 10.0 mi South 3.5 mph - N/A   Mostly Cloudy
11:06 PM 71.6 °F - 68.0 °F 88% 29.96 in 10.0 mi Calm Calm - N/A   Overcast
11:52 PM 71.1 °F - 68.0 °F 90% 29.96 in 10.0 mi South 4.6 mph - N/A   Mostly Cloudy